Location: Bernadets
(43.3537°N, 0.3167°E)
Time: 13:56:10
(UTC+00:00)

Cosmos 1844 - Pass Details

Date: 24 October 2021
Orbit: 822 x 868 km, 70.9° (Epoch: 07 December)

Event Time Altitude Azimuth Distance (km) Brightness Sun altitude
Rises 18:12:52 0° 340° (NNW) 3,461 7.1 -13.6°
Reaches altitude 10° 18:15:32 10° 349° (NNW) 2,517 6.3 -14.1°
Maximum altitude 18:20:54 37° 56° (NE) 1,306 4.3 -15.1°
Enters shadow 18:24:03 21° 110° (ESE) 1,817 4.9 -15.7°
